Regional Weather Roundup
Issued by NWS

Home | Current Version | Previous Version | Graphics & Text | Print | Product List | Glossary On
Versions: 1 2 3 4 5 6 7 8 9 10 11 12 13 14 15 16 17 18 19 20 21 22 23 24 25 26 27 28 29 30 31 32 33 34 35 36 37 38 39 40 41 42 43 44 45 46 47 48 49 50
997
ASUS43 KLOT 232308
RWRIL

ILLINOIS REGIONAL WEATHER ROUNDUP
NATIONAL WEATHER SERVICE CHICAGO/ROMEOVILLE IL
500 PM CST THU NOV 23 2017

NOTE: "FAIR" INDICATES FEW OR NO CLOUDS BELOW 12,000 FEET WITH NO
SIGNIFICANT WEATHER AND/OR OBSTRUCTIONS TO VISIBILITY.

* THESE STATIONS ARE NOT UNDER NWS QUALITY CONTROL. THEY ALSO MAY NOT
  REPORT WEATHER SUCH AS PRECIPITATION OR FOG.

ILZ001-002-007-009-015-016-024-240000-
NORTHWEST ILLINOIS

CITY           SKY/WX    TMP DP  RH WIND       PRES   REMARKS
MOLINE         CLEAR     40  26  57 CALM      29.93R
STERLING*        N/A     41  27  57 MISG        N/A
SAVANNA*       CLEAR     42  27  55 CALM      29.92S
$$

ILZ003-004-008-010-011-017-018-240000-
NORTH CENTRAL ILLINOIS

CITY           SKY/WX    TMP DP  RH WIND       PRES   REMARKS
ROCKFORD       PTCLDY    41  24  51 CALM      29.94R
FREEPORT*      CLEAR     38  25  59 SW3       29.94R
ROCHELLE*      CLEAR     34  27  74 SW6       29.93R WCI  29
DE KALB*       CLEAR     37  26  66 W5        29.93R WCI  33
PERU*          CLEAR     42  25  51 SW3       29.94R
$$

ILZ005-006-012>014-019>023-240000-
NORTHEAST ILLINOIS

CITY           SKY/WX    TMP DP  RH WIND       PRES   REMARKS
CHICAGO-OHARE  PTCLDY    42  25  50 W3        29.92R
CHICAGO-MIDWAY CLEAR     42  27  55 W5        29.93R
AURORA         CLEAR     39  26  59 SW3       29.93R
LANSING*       CLEAR     39  31  71 SW7       29.94R WCI  34
JOLIET*        CLEAR     44  28  53 W3        29.94R
WAUKEGAN       CLEAR     37  25  61 W3        29.91R
DUPAGE AIRPORT CLEAR     40  27  59 SW3       29.92R
KANKAKEE*      CLEAR     42  29  58 SW3       29.95R
WHEELING       CLEAR     43  26  51 CALM      29.94R
MORRIS*        CLEAR     40  27  59 SW3       29.93R
ROMEOVILLE*    CLEAR     40  27  59 W5        29.93R
NORTHERLY ISL    N/A     45  25  45 SW5         N/A
$$

LMZ740>746-240000-
SOUTHERN LAKE MICHIGAN

STATION/POSITION SKY/WX   TEMP    WIND        PRES    VSBY  WAVE
                          AIR SEA DIR/SP/G                  HT/PER
                          (F)     (DEG/KT/KT) (MB)    (MI)  (FT/S)
SOUTHERN BUOY              42 47  250/ 10/ 12 1013.4          3/ 5
HARRISON CRIB              46     260/ 11/ 12   N/A
BURNHAM HARBOR             45     270/  4/ 11   N/A
CALUMET HARBOR             45     220/  5/  8 1012.7R
BURNS HARBOR               46     210/  5/ 16 1013.9S
MICHIGAN CITY              44     170/  6/  7   N/A
$$

ILZ025>027-034>036-040-047-049-050-058-095>099-240000-
WEST-CENTRAL ILLINOIS

CITY           SKY/WX    TMP DP  RH WIND       PRES   REMARKS
QUINCY         CLEAR     46  30  53 CALM      29.94S
GALESBURG*     CLEAR     42  29  60 CALM      29.95S
MACOMB*        CLEAR     43  30  60 W5        29.96S
JACKSONVILLE*  CLEAR     45  28  53 CALM      29.95S
PITTSFIELD*    CLEAR     49  30  47 CALM      29.96R
$$

ILZ028>032-037-038-041>044-048-051>054-059>061-240000-
CENTRAL ILLINOIS

CITY           SKY/WX    TMP DP  RH WIND       PRES   REMARKS
PONTIAC        CLEAR     40  29  62 SW5       29.95S
BLOOMINGTON    CLEAR     43  27  53 W7        29.95R
DECATUR        CLEAR     44  28  53 SW6       29.96R
PEORIA         CLEAR     43  26  51 SW5       29.95R
LACON*         CLEAR     40  27  59 CALM      29.94R
LINCOLN*       CLEAR     46  29  53 CALM      29.95R
SPRINGFIELD    CLEAR     47  30  51 W7        29.96R
TAYLORVILLE    CLEAR     44  28  53 S3        29.95S
$$

ILZ033-039-045-046-055>057-062-063-240000-
EAST-CENTRAL ILLINOIS

CITY           SKY/WX    TMP DP  RH WIND       PRES   REMARKS
CHAMPAIGN      CLEAR     38  28  67 S7        29.96R WCI  33
DANVILLE*      CLEAR     39  27  60 S6        29.94S WCI  35
RANTOUL*       CLEAR     42  33  71 S6        29.95R
MATTOON        CLEAR     44  28  53 S7        29.95S
PARIS*         CLEAR     36  28  73 S7        29.98S WCI  31
$$

ILZ079-100>102-240000-
SOUTHWEST ILLINOIS

CITY           SKY/WX    TMP DP  RH WIND       PRES   REMARKS
ALTON          CLEAR     50  28  43 CALM      29.96R
BELLEVILLE     CLEAR     50  26  40 SE6       29.95R
CAHOKIA*       CLEAR     53  26  35 SE5       29.95R
SPARTA*        CLEAR     49  27  43 S5        29.98R
$$

ILZ064>066-069>071-074>076-080>082-084>086-088>090-092>094-240000-
SOUTH-CENTRAL ILLINOIS

CITY           SKY/WX    TMP DP  RH WIND       PRES   REMARKS
CARBONDALE     CLEAR     44  26  49 S7        29.99S
CAIRO*         CLEAR     46  27  47 S5        30.02F
EFFINGHAM*     CLEAR     47  25  43 SE3       29.98S
MARION         CLEAR     45  25  45 S12       30.00S
MT. VERNON     CLEAR     43  27  53 CALM      29.99S
CENTRALIA*     CLEAR     44  29  54 S6        29.97S
SALEM*         CLEAR     47  26  43 S3        29.97S
METROPOLIS*    CLEAR     46  24  42 S5        30.02F
$$

ILZ067-068-072-073-078-083-087-091-240000-
SOUTHEAST ILLINOIS

CITY           SKY/WX    TMP DP  RH WIND       PRES   REMARKS
LAWRENCEVILLE  CLEAR     42  27  55 S9        30.00F
FLORA*         CLEAR     45  27  50 S6        29.99R
FAIRFIELD*     CLEAR     45  25  46 CALM      29.97F
HARRISBURG*    CLEAR     46  26  45 S6        30.00F
ROBINSON*      CLEAR     39  26  59 S5        30.00S
CARMI*         CLEAR     40  28  63 SE8       29.99F
$$

ABBREVIATIONS USED IN REMARKS
   TC - TEMPERATURE IN CELSIUS
  WCI - WIND CHILL INDEX
   HX - HEAT INDEX
  VSB - VISIBILITY
$$





USA.gov is the U.S. government's official web portal to all federal, state and local government web resources and services.